Regional Weather Roundup
Issued by NWS Upton, NY

Current Version | Previous Version | Graphics & Text | Print | Product List | Glossary Off
Versions: 1 2 3 4 5 6 7 8 9 10 11 12 13 14 15 16 17 18 19 20 21 22 23 24 25 26 27

000
ASUS41 KOKX 170205
RWROKX

REGIONAL WEATHER ROUNDUP
NATIONAL WEATHER SERVICE NEW YORK NY
1000 PM EDT WED APR 16 2014

NOTE: "FAIR" INDICATES FEW OR NO CLOUDS BELOW 12,000 FEET WITH NO
SIGNIFICANT WEATHER AND/OR OBSTRUCTIONS TO VISIBILITY.

NYZ071-072-176-178-NJZ106-104-170300-
NEW YORK CITY METRO AREA


CITY           SKY/WX    TMP DP  RH WIND       PRES   REMARKS
CENTRAL PARK   CLEAR     42  14  32 NE9G17    30.56R
LAGUARDIA APRT PTCLDY    42  18  37 NE15      30.54R
KENNEDY INTL   PTCLDY    42  17  36 NE8       30.55R
NEWARK/LIBERTY CLEAR     43  17  35 NE12      30.53R
TETERBORO      CLEAR     44  15  31 NE5       30.53R
$$

NYZ177-179-078>081-170300-
LONG ISLAND NEW YORK

CITY           SKY/WX    TMP DP  RH WIND       PRES   REMARKS
FARMINGDALE    CLEAR     38  16  40 N8        30.54R WCI  32
ISLIP          PTCLDY    39  19  44 N7        30.52R WCI  34
SHIRLEY        CLEAR     35  22  58 N5        30.54R WCI  31
WESTHAMPTON    CLEAR     39  18  42 N8        30.54R WCI  33
MONTAUK POINT    N/A     42  23  46 NE10      30.54R
$$

NYZ052-065-067-170300-
HUDSON VALLEY

CITY           SKY/WX    TMP DP  RH WIND       PRES   REMARKS
WHITE PLAINS   CLEAR     37  14  38 NE5       30.52R WCI  33
NEWBURGH       CLEAR     36  18  48 N5        30.54R WCI  32
MONTGOMERY     CLEAR     33  18  53 N6        30.54R WCI  28
POUGHKEEPSIE   CLEAR     34  19  54 N6        30.54R WCI  29
ALBANY         CLEAR     33  14  45 NW8       30.58R WCI  26
$$

NJZ001-105-106-008-010-013-015-019>022-104-170300-
NEW JERSEY

CITY           SKY/WX    TMP DP  RH WIND       PRES   REMARKS
NEWARK/LIBERTY CLEAR     43  17  35 NE12      30.53R
TETERBORO      CLEAR     44  15  31 NE5       30.53R
CALDWELL       CLEAR     40  16  37 CALM      30.54R
MORRISTOWN     CLEAR     37  25  60 CALM      30.54R
SOMERVILLE     CLEAR     36  25  64 NW3       30.52
LINDEN         FAIR      45  17  33 N5        30.55R
SUSSEX           N/A     37  17  44 NE3       30.53R
ANDOVER          N/A     33  21  61 CALM      30.52R
TRENTON        CLEAR     39  17  41 N6        30.52R WCI  35
MILLVILLE      CLEAR     34  28  79 CALM      30.53R
ATLANTIC CITY  CLEAR     35  26  69 SE5       30.52R WCI  31
WRIGHTSTOWN    CLEAR     38  20  46 N5        30.50R WCI  35
TOMS RIVER     CLEAR     32  25  74 CALM      30.53R
BELMAR         CLEAR     41  21  45 E5        30.52R
$$

PAZ047>061-062-071-170300-
EASTERN PENNSYLVANIA

CITY           SKY/WX    TMP DP  RH WIND       PRES   REMARKS
PHILADELPHIA   PTCLDY    43  16  33 N6        30.54R
ALLENTOWN      CLEAR     36  19  50 N6        30.53R WCI  31
SCRANTON       CLEAR     34  16  47 NE5       30.52R WCI  30
$$

CTZ002-004>006-009-010-012-RIZ004-006-007-MAZ004-011-015-170300-
SOUTHERN NEW ENGLAND
 IN CT

CITY           SKY/WX    TMP DP  RH WIND       PRES   REMARKS
BRADLEY INTL   CLEAR     35  15  44 N7        30.53R WCI  29
HARTFORD       CLEAR     37  14  38 NE7       30.55R WCI  32
DANBURY        CLEAR     36  16  44 N6        30.54R WCI  31
WTRBRY/OXFORD  CLEAR     34  16  47 N9        30.54R WCI  26
BRIDGEPORT     CLEAR     39  18  42 N8        30.55R WCI  33
MERIDEN        CLEAR     37  18  46 CALM      30.55R
NEW HAVEN      CLEAR     37  20  50 N7        30.54R WCI  32
CHESTER        FAIR      37  14  38 N7        30.53R WCI  32
GROTON         CLEAR     38  20  48 N5        30.54R WCI  34
WILLIMANTIC    CLEAR     35  21  56 CALM      30.55R

 IN RI

CITY           SKY/WX    TMP DP  RH WIND       PRES   REMARKS
PROVIDENCE     CLEAR     38  15  39 N8        30.55R WCI  32
BLOCK ISLAND   CLEAR     39  25  56 E7        30.54R WCI  34
WESTERLY       CLEAR     39  17  41 N6        30.55R WCI  35

 IN MA

CITY           SKY/WX    TMP DP  RH WIND       PRES   REMARKS
BOSTON         CLEAR     36  13  38 N9        30.57R WCI  29
WORCESTER      CLEAR     32  14  47 N8        30.52R WCI  25
WESTFIELD      CLEAR     33  19  56 N9        30.54R WCI  25
PROVINCETOWN   CLEAR     37  25  60 MISG      30.56R
NANTUCKET      CLEAR     35  22  58 NE12      30.53R WCI  27
$$

ANZ330-335-338-340-345-350-353-355-170300-
COASTAL MARINE OBSERVATIONS


STATION/POSITION TIME  SKY/WX   TEMP    WIND        PRES    VSBY  WAVE
                                AIR SEA DIR/SP/G                  HT/PER
                 (UTC)          (F)     (DEG/KT/KT) (MB)    (MI)  (FT/S)
NY HARB ENTRANCE 0200            43 42   50/ 16/ 17 1033.5
4S FIRE IS       0100               44                N/A           3/11
23SW MTP         0200            42 42   60/ 10/ 12 1033.1          4/10
HUDSON CANYON    0100            42 45   30/ 14/ 16 1031.9          5/11
EXECUTION ROCKS  0200            42 42   30/ 14/ 19   N/A
WESTERN LI SOUND 0200            41      40/ 12/ 14   N/A           1/ 3
CENTRAL LI SOUND 0100            42 41   20/ 12/ 16   N/A           1/ 2
EASTERN LI SOUND NOT AVBL
ROBBINS REEF     0200            44      70/ 14/ 16   N/A
$$


>>>>>>>>>>>>>>>>>>>>>>>>>>>> KEY <<<<<<<<<<<<<<<<<<<<<<<<<<<
>                                                          <
>     SKY/WX - SKY CONDITION/PRESENT WEATHER               <
>     TMP    - TEMPERATURE IN FAHRENHEIT                   <
>     DP     - DEWPOINT IN FAHRENHEIT                      <
>     RH     - RELATIVE HUMIDITY IN PERCENT                <
>     WIND   - DIRECTION AND SPEED IN MPH                  <
>     PRES   - MEAN SEA LEVEL PRESSURE IN INCHES OF HG     <
>     WCI    - WIND CHILL INDEX                            <
>     VSB    - VISIBILITY IN MILES                         <
>     HX     - HEAT INDEX                                  <
>     TC     - TEMPERATURE IN CELSIUS                      <
>     VRB    - VARIABLE WIND DIRECTION                     <
>                                                          <
>>>>>>>>>>>>>>>>>>>>>>>>>>>> KEY <<<<<<<<<<<<<<<<<<<<<<<<<<<





USA.gov is the U.S. government's official web portal to all federal, state and local government web resources and services.